This demonstration page uses our WeatherBlox Daily Observations layout. Learn more.

Left ArrowRight Arrow

Hourly Observations for March 11, 2021

Temp ( °F °C ) Dew Point ( °F °C ) Humidity (%) Winds ( mph kmh ) Pressure ( in mb ) Visibility ( mi km ) Precip ( " mm )
12:03 am 00:03 Cloudy 28 -2.2 22 -5.6 78 78 ENE 6 9 30.22 1024 10 16 N/A
12:16 am 00:16 Cloudy 28 -2.2 22 -5.6 78 78 ENE 5 7 30.22 1024 10 16 N/A
12:53 am 00:53 Cloudy 28 -2.2 22 -5.6 78 78 E 3 6 30.17 1022 10 16 N/A
1:17 am 01:17 Cloudy with Light Snow 27 -2.8 22 -5.6 81 81 N N/A 30.24 1024 2 3 0.00 0.00
1:20 am 01:20 Cloudy with Light Snow 27 -2.8 22 -5.6 81 81 W 5 7 30.24 1024 1 2 0.00 0.00
1:23 am 01:23 Cloudy with Light Snow 26 -3.3 23 -5 88 88 W 5 7 30.25 1024 1 1 0.01 0.25
1:29 am 01:29 Cloudy with Light Snow 26 -3.3 24 -4.4 92 92 N N/A 30.25 1024 1 2 0.01 0.25
1:34 am 01:34 Cloudy with Light Snow 26 -3.3 24 -4.4 92 92 N N/A 30.25 1024 2 3 0.01 0.25
1:41 am 01:41 Cloudy with Mist and Fog 26 -3.3 25 -3.9 96 96 N N/A 30.25 1024 5 8 0.01 0.25
1:47 am 01:47 Cloudy with Light Snow 27 -3 25 -4 93 93 WNW 3 6 30.24 1024 3 4 0.01 0.25
1:50 am 01:50 Cloudy with Light Snow 27 -3 23 -5 86 86 NW 5 7 30.24 1024 1 2 0.02 0.51
1:53 am 01:53 Cloudy with Light Snow 26 -3.3 23 -5 88 88 WNW 6 9 30.18 1022 1 2 0.02 0.51
2:13 am 02:13 Cloudy with Light Snow 26 -3.3 24 -4.4 92 92 NW 6 9 30.26 1025 2 3 0.00 0.00
2:22 am 02:22 Cloudy with Light Snow 26 -3.3 23 -5 88 88 NW 6 9 30.26 1025 3 4 0.00 0.00
2:32 am 02:32 Cloudy with Light Snow 25 -3.9 22 -5.6 88 88 NNW 8 13 30.26 1025 2 3 0.01 0.25
2:37 am 02:37 Cloudy with Light Snow 25 -3.9 23 -5 92 92 NNW 6 9 30.26 1025 3 5 0.01 0.25
2:53 am 02:53 Cloudy with Light Snow 25 -3.9 22 -5.6 88 88 NW 6 9 30.19 1022 7 11 0.01 0.25
3:11 am 03:11 Cloudy 25 -3.9 21 -6.1 85 85 NW 3 6 30.25 1024 10 16 0.00 0.00
3:53 am 03:53 Cloudy 25 -3.9 22 -5.6 88 88 N N/A 30.18 1022 10 16 0.00 0.00
4:53 am 04:53 Cloudy 25 -3.9 21 -6.1 85 85 W 5 7 30.19 1023 10 16 N/A
5:53 am 05:53 Cloudy 25 -3.9 21 -6.1 85 85 N N/A 30.20 1023 10 16 N/A
6:44 am 06:44 Cloudy 25 -4 19 -7 80 80 ENE 10 17 30.26 1025 10 16 N/A
6:53 am 06:53 Cloudy 24 -4.4 19 -7.2 81 81 ENE 8 13 30.22 1024 10 16 N/A
7:02 am 07:02 Cloudy 24 -4.4 19 -7.2 81 81 ENE 8 13 30.28 1025 10 16 N/A
7:19 am 07:19 Cloudy 24 -4.4 19 -7.2 81 81 E 7 11 30.28 1025 10 16 N/A
7:53 am 07:53 Cloudy 24 -4.4 19 -7.2 81 81 ENE 7 11 30.23 1024 10 16 N/A
8:53 am 08:53 Cloudy 26 -3.3 20 -6.7 78 78 E 5 7 30.22 1024 10 16 N/A
9:53 am 09:53 Cloudy 27 -2.8 21 -6.1 78 78 E 5 7 30.22 1023 10 16 N/A
10:50 am 10:50 Cloudy 28 -2 21 -6 74 74 VRB 3 6 30.24 1024 10 16 N/A
10:53 am 10:53 Cloudy 29 -1.7 22 -5.6 75 75 ENE 3 6 30.21 1023 10 16 N/A
11:53 am 11:53 Cloudy 31 -0.6 23 -5 72 72 N N/A 30.19 1023 10 16 N/A
12:53 pm 12:53 Cloudy 35 1.7 24 -4.4 64 64 WSW 9 15 30.17 1022 10 16 N/A
1:23 pm 13:23 Mostly Sunny 37 2.8 24 -4.4 59 59 W 8 13 30.15 1021 10 16 N/A
1:53 pm 13:53 Mostly Sunny 37 2.8 24 -4.4 59 59 SW 9 15 30.14 1021 10 16 N/A
2:53 pm 14:53 Sunny 40 4.4 25 -3.9 55 55 undefined N/A 30.12 1020 10 16 N/A
3:53 pm 15:53 Sunny 41 5 25 -3.9 53 53 SW 8 13 30.10 1019 10 16 N/A
4:53 pm 16:53 Sunny 42 5.6 22 -5.6 45 45 SSW 5 7 30.10 1019 10 16 N/A
5:53 pm 17:53 Sunny 39 3.9 25 -3.9 57 57 E 10 17 30.11 1020 10 16 N/A
6:53 pm 18:53 Clear 34 1.1 25 -3.9 70 70 E 12 19 30.13 1020 10 16 N/A
7:53 pm 19:53 Clear 32 undefined 24 -4.4 73 73 E 14 22 30.15 1021 10 16 N/A
8:53 pm 20:53 Clear 29 -1.7 23 -5 78 78 ENE 9 15 30.16 1021 10 16 N/A
9:53 pm 21:53 Clear 28 -2.2 22 -5.6 78 78 E 7 11 30.16 1022 10 16 N/A
10:53 pm 22:53 Clear 25 -3.9 22 -5.6 88 88 E 3 6 30.16 1022 10 16 N/A
11:53 pm 23:53 Clear 24 -4.4 20 -6.7 84 84 N N/A 30.16 1022 10 16 N/A

Powered by AerisWeather